Location: Unspecified
(33.9239°N, 118.0544°W)
Time: 00:07:45
(UTC-07:00)

Cosmos 2058 - Visible Passes

Search period start: 26 July 2014 00:00
Search period end: 05 August 2014 00:00
Orbit: 572 x 593 km, 82.5° (Epoch: 26 July)

Date Brightness Start Highest point End Pass type
(mag) Time Alt. Az. Time Alt. Az. Time Alt. Az.
26 Jul 4.6 03:46:56 10° NNE 03:50:44 32° E 03:54:29 10° SE visible
26 Jul 4.7 05:25:07 10° NW 05:27:29 15° W 05:29:50 10° WSW visible
27 Jul 3.8 03:52:35 10° N 03:56:40 47° E 03:59:20 20° SSE visible
28 Jul 3.1 03:58:22 10° N 04:02:35 72° E 04:04:17 35° SSE visible
29 Jul 2.8 04:04:15 10° N 04:08:27 75° W 04:09:19 54° SSW visible
30 Jul 3.1 04:10:14 10° NNW 04:14:18 49° W 04:14:27 49° W visible
31 Jul 5.6 02:40:34 10° NE 02:42:57 15° ENE 02:43:17 15° E visible
31 Jul 3.8 04:16:21 10° NNW 04:19:38 32° WNW 04:19:38 32° WNW visible
01 Aug 5.2 02:45:43 10° NNE 02:48:31 21° ENE 02:48:31 21° ENE visible
01 Aug 4.5 04:22:38 10° NW 04:24:52 20° WNW 04:24:52 20° WNW visible
02 Aug 4.9 02:51:10 10° NNE 02:53:49 26° NE 02:53:49 26° NE visible
02 Aug 5.1 04:29:12 10° NW 04:30:10 13° WNW 04:30:10 13° WNW visible
03 Aug 4.8 02:56:48 10° N 02:59:09 29° NNE 02:59:09 29° NNE visible
04 Aug 4.8 03:02:33 10° N 03:04:31 27° N 03:04:31 27° N visible
